Stations météo

Publicité
Paris-Montsouris, France (7156): Température de l'air & dewpoint: 15.01.2018 15:00:00 - 21.01.2018 15:00:00 (CET)Paris-Montsouris, France (7156): Température de l'air 5cm: 15.01.2018 15:00:00 - 21.01.2018 15:00:00 (CET)Paris-Montsouris, France (7156): Température de l'air -20cm & Température de l'air -100cm: 15.01.2018 15:00:00 - 21.01.2018 15:00:00 (CET)Paris-Montsouris, France (7156): Vitesse du vent & gusts: 15.01.2018 15:00:00 - 21.01.2018 15:00:00 (CET)Paris-Montsouris, France (7156): Direction du vent: 15.01.2018 15:00:00 - 21.01.2018 15:00:00 (CET)Paris-Montsouris, France (7156): reduced air pressure: 15.01.2018 15:00:00 - 21.01.2018 15:00:00 (CET)Paris-Montsouris, France (7156): visibility: 15.01.2018 15:00:00 - 21.01.2018 15:00:00 (CET)Paris-Montsouris, France (7156): Ensoleillement: 15.01.2018 15:00:00 - 21.01.2018 15:00:00 (CET)Paris-Montsouris, France (7156): Quantités de précipitations: 15.01.2018 15:00:00 - 21.01.2018 15:00:00 (CET)
Date & Time tt [°C] td [°C] tt 5cm [°C] tt -20cm [°C] tt -100cm [°C] ff [km/h] ff [knt] fx [km/h] fx [knt] dd ppp [hPa] vv [km] sd [min] rr [mm]
21.01.2018 15:00:00 6,6 5,7 6,3 7,2 8,9 13 7 28 15 S 1015,8 2,5 0 0,6
21.01.2018 14:00:00 6,5 5,4 6,3 7,2 8,9 12 6 26 14 S 1016,7 3,9 0 0,2
21.01.2018 13:00:00 7,0 5,3 6,9 7,2 8,9 9 5 22 12 S 1017,5 12 0 0,4
21.01.2018 12:00:00 6,9 4,7 6,1 7,2 8,9 9 5 20 11 SSE 1018,3 13 0 0,2
21.01.2018 11:00:00 6,5 3,5 5,8 7,1 8,9 11 6 21 11 SSE 1018,0 20 0 0,0
21.01.2018 10:00:00 6,1 3,8 5,3 7,1 8,9 6 3 15 8 S 1018,2 20 0 0,0
21.01.2018 09:00:00 6,1 3,8 5,3 7,2 8,9 5 3 10 5 SSE 1017,7 17 0 0,0
21.01.2018 08:00:00 6,4 3,0 5,3 7,2 8,9 3 2 15 8 ESE 1016,9 19 0 0,0
21.01.2018 07:00:00 6,5 2,4 5,5 7,2 8,9 8 4 23 13 N 1016,2 20 0 0,0
21.01.2018 06:00:00 7,0 2,5 5,8 7,2 8,9 9 5 24 13 NNE 1015,6 20 0 0,0
21.01.2018 05:00:00 7,1 2,0 5,8 7,2 8,9 12 7 31 17 N 1014,7 20 0 0,0
21.01.2018 04:00:00 7,5 3,2 5,9 7,2 8,9 14 7 36 19 N 1013,6 20 0 0,0
21.01.2018 03:00:00 8,0 4,2 6,5 7,2 8,9 13 7 40 21 N 1012,6 20 0 0,0
21.01.2018 02:00:00 8,4 4,6 6,8 7,1 8,9 18 10 41 22 NNW 1010,9 20 0 0,0
21.01.2018 01:00:00 8,7 5,4 7,4 7,1 8,9 26 14 45 25 N 1008,9 20 0 0,2
21.01.2018 00:00:00 9,6 7,4 8,3 7,1 8,9 19 10 38 20 NW 1007,1 20 0 0,2
20.01.2018 23:00:00 9,9 7,5 8,4 7,0 8,9 17 9 48 26 NW 1005,6 20 0 0,2
20.01.2018 22:00:00 10,6 7,1 8,8 7,0 8,9 21 11 48 26 WNW 1003,7 20 0 0,0
20.01.2018 21:00:00 11,3 7,2 9,4 6,9 8,9 21 11 49 27 WNW 1002,5 20 0 0,2
20.01.2018 20:00:00 11,4 9,0 10,0 6,9 8,9 17 9 45 24 WNW 1001,6 20 0 0,0
20.01.2018 19:00:00 10,9 9,7 9,7 6,8 8,9 13 7 32 17 W 1001,1 9 0 0,6
20.01.2018 18:00:00 10,9 9,2 9,7 6,7 8,9 11 6 45 24 W 1000,5 3,8 0 0,4
20.01.2018 17:00:00 11,8 8,1 10,7 6,6 8,9 22 12 62 33 WNW 1000,1 20 0 0,0
20.01.2018 16:00:00 11,8 8,5 10,7 6,5 8,9 24 13 64 35 WNW 999,2 20 7 0,0
20.01.2018 15:00:00 10,7 8,8 9,5 6,5 8,9 22 12 53 28 WNW 998,1 20 0 0,0
20.01.2018 14:00:00 9,1 8,6 7,3 6,4 8,9 15 8 30 16 W 998,2 12 0 0,2
20.01.2018 13:00:00 7,0 6,4 6,1 6,4 8,9 11 6 44 24 SSW 998,9 4,8 0 0,0
20.01.2018 12:00:00 6,1 5,2 5,6 6,3 8,9 19 10 46 25 S 1000,6 7 0 0,2
20.01.2018 11:00:00 5,8 4,8 5,5 6,3 8,9 19 10 43 23 S 1002,0 9 0 0,4
20.01.2018 10:00:00 5,7 4,8 5,0 6,4 8,9 16 8 32 18 SSW 1004,3 12 0 1,4
20.01.2018 09:00:00 5,4 4,7 4,4 6,3 8,9 13 7 30 16 SSW 1006,1 11 0 1,2
20.01.2018 08:00:00 4,7 3,8 3,9 6,3 8,9 9 5 23 13 S 1008,1 12 0 0,4
20.01.2018 07:00:00 4,3 3,4 3,8 6,4 9,0 13 7 27 14 SSW 1009,5 11 0 0,4
20.01.2018 06:00:00 4,4 3,2 3,6 6,4 8,9 11 6 27 15 SSW 1010,9 11 0 0,2
20.01.2018 05:00:00 4,4 2,4 3,3 6,4 8,9 12 7 27 15 SW 1012,0 20 0 0,0
20.01.2018 04:00:00 4,2 1,9 2,3 6,5 8,9 12 7 31 17 SSW 1013,3 20 0 0,0
20.01.2018 03:00:00 3,7 1,6 1,8 6,5 8,9 11 6 21 11 SW 1014,1 20 0 0,0
20.01.2018 02:00:00 4,0 1,5 0,3 6,6 8,9 10 6 22 12 WSW 1014,7 20 0 0,0
20.01.2018 01:00:00 4,1 1,1 0,5 6,6 8,9 5 3 26 14 WSW 1014,9 20 0 0,0
20.01.2018 00:00:00 4,3 1,2 0,9 6,7 8,9 9 5 29 16 WSW 1015,1 20 0 0,0
19.01.2018 23:00:00 4,8 1,3 1,9 6,7 8,9 15 8 39 21 W 1015,3 20 0 0,0
19.01.2018 22:00:00 5,2 1,3 2,2 6,8 8,9 17 9 40 22 W 1014,8 20 0 0,0
19.01.2018 21:00:00 5,3 1,6 2,2 6,8 8,9 20 11 36 19 W 1014,9 20 0 0,0
19.01.2018 20:00:00 5,1 1,4 1,6 6,9 8,9 16 9 31 17 W 1014,9 20 0 0,0
19.01.2018 19:00:00 5,6 1,3 0,7 6,9 8,9 16 9 29 16 W 1014,6 20 0 0,0
19.01.2018 18:00:00 5,5 1,0 1,6 7,0 8,9 11 6 26 14 WSW 1014,3 20 0 0,0
19.01.2018 17:00:00 6,1 2,0 3,3 7,0 8,9 9 5 27 15 W 1014,0 20 60 0,0
19.01.2018 16:00:00 5,4 3,1 3,6 7,0 9,0 7 4 20 11 W 1014,0 20 55 0,0
19.01.2018 15:00:00 4,5 2,7 3,0 6,9 8,9 9 5 57 31 WNW 1014,0 20 17 1,6
19.01.2018 14:00:00 7,2 3,4 5,8 6,9 9,0 11 6 32 17 NW 1013,6 20 12 0,0
19.01.2018 13:00:00 6,0 3,2 4,7 6,9 8,9 13 7 29 16 W 1014,0 20 4 0,0
19.01.2018 12:00:00 5,1 2,8 4,5 6,9 9,0 18 10 39 21 W 1014,1 18 0 0,4
19.01.2018 11:00:00 5,3 3,0 4,5 6,9 9,0 17 9 37 20 W 1013,9 20 0 0,4
19.01.2018 10:00:00 5,8 2,8 4,2 6,9 9,0 17 9 41 22 W 1013,8 20 0 0,0
19.01.2018 09:00:00 5,1 2,4 2,9 7,0 9,0 13 7 33 18 WSW 1013,3 20 0 0,0
19.01.2018 08:00:00 5,0 2,5 2,9 7,0 8,9 16 8 29 15 W 1012,8 20 0 0,0
19.01.2018 07:00:00 4,7 2,6 1,6 7,1 9,0 9 5 23 12 W 1012,8 20 0 0,0
19.01.2018 06:00:00 4,4 2,3 1,3 7,1 9,0 8 4 22 12 WSW 1012,6 20 0 0,0
19.01.2018 05:00:00 5,1 2,6 1,9 7,2 9,0 11 6 26 14 W 1012,6 20 0 0,0
19.01.2018 04:00:00 4,7 2,4 1,3 7,3 9,0 13 7 26 14 WSW 1012,1 20 0 0,0
19.01.2018 03:00:00 4,8 2,5 1,9 7,4 9,0 11 6 39 21 W 1012,0 20 0 0,4
19.01.2018 02:00:00 5,4 2,4 3,3 7,4 9,0 13 7 49 27 NW 1011,8 20 0 0,4
19.01.2018 01:00:00 6,7 2,6 4,9 7,4 9,0 14 8 41 22 WNW 1010,9 20 0 0,0
19.01.2018 00:00:00 7,4 3,1 5,3 7,4 9,0 14 8 51 28 WNW 1010,2 20 0 0,0
18.01.2018 23:00:00 7,9 3,5 5,8 7,4 9,0 12 6 72 39 WNW 1009,6 20 0 0,2
18.01.2018 22:00:00 8,3 4,9 5,3 7,5 9,0 18 10 46 25 W 1008,5 20 0 0,0
18.01.2018 21:00:00 8,2 4,8 6,1 7,5 9,0 16 9 53 28 W 1008,2 20 0 0,4
18.01.2018 20:00:00 9,2 5,4 6,7 7,5 9,0 11 6 38 20 W 1007,7 19 0 0,0
18.01.2018 19:00:00 9,3 5,1 5,9 7,5 9,0 14 7 31 17 W 1007,5 20 0 0,0
18.01.2018 18:00:00 9,4 5,4 7,0 7,5 9,0 13 7 32 18 W 1007,2 20 0 0,0
18.01.2018 17:00:00 10,3 5,5 8,8 7,4 9,0 13 7 36 19 WNW 1007,1 20 38 0,0
18.01.2018 16:00:00 10,4 6,7 9,8 7,3 9,0 10 6 52 28 NW 1006,9 20 0 0,0
18.01.2018 15:00:00 11,5 7,0 11,0 7,2 9,0 16 9 42 23 WNW 1006,4 20 17 0,0
18.01.2018 14:00:00 11,4 7,1 9,5 7,1 9,0 20 11 55 30 NW 1006,7 19 36 0,0
18.01.2018 13:00:00 10,2 8,1 9,5 7,0 9,0 16 9 46 25 NW 1007,5 8 0 0,4
18.01.2018 12:00:00 11,2 9,6 10,6 6,9 9,0 23 12 53 29 W 1007,1 7 0 1,2
18.01.2018 11:00:00 11,5 9,1 10,0 6,9 9,0 24 13 58 31 W 1006,4 20 1 0,0
18.01.2018 10:00:00 11,0 8,7 9,5 6,8 9,0 24 13 56 30 WSW 1006,2 20 0 0,0
18.01.2018 09:00:00 10,7 8,3 8,9 6,7 9,0 26 14 63 34 W 1005,7 17 0 0,0
18.01.2018 08:00:00 10,2 8,0 8,6 6,7 9,0 26 14 66 36 WSW 1005,2 18 0 0,2
18.01.2018 07:00:00 9,4 7,7 8,0 6,7 9,0 23 12 64 34 WSW 1005,3 20 0 0,0
18.01.2018 06:00:00 8,9 7,3 7,4 6,7 9,0 22 12 61 33 WSW 1005,8 10 0 0,0
18.01.2018 05:00:00 8,2 6,7 6,8 6,7 9,0 23 13 64 35 WSW 1006,4 20 0 0,4
18.01.2018 04:00:00 7,5 6,1 5,9 6,6 9,0 19 10 58 31 WSW 1007,9 19 0 1,2
18.01.2018 03:00:00 6,5 5,1 5,4 6,7 9,0 23 12 48 26 SW 1009,2 8 0 2,0
18.01.2018 02:00:00 6,6 4,3 5,4 6,7 9,1 18 10 48 26 SW 1011,1 12 0 0,2
18.01.2018 01:00:00 6,5 3,1 5,3 6,6 9,0 20 11 49 26 SW 1013,0 20 0 0,0
18.01.2018 00:00:00 6,3 2,6 5,5 6,7 9,0 18 10 39 21 SW 1014,2 20 0 0,0
17.01.2018 23:00:00 6,6 2,7 4,2 6,7 9,0 13 7 36 19 WSW 1015,1 20 0 0,0
17.01.2018 22:00:00 6,4 2,1 4,8 6,7 9,0 18 10 50 27 WSW 1015,4 20 0 0,0
17.01.2018 21:00:00 6,4 2,1 4,7 6,8 9,0 20 11 48 26 W 1015,2 20 0 0,0
17.01.2018 20:00:00 6,2 2,1 4,5 6,8 9,0 14 7 43 23 WSW 1015,8 20 0 0,0
17.01.2018 19:00:00 6,5 2,0 4,7 6,8 9,1 23 12 52 28 W 1015,8 20 0 0,0
17.01.2018 18:00:00 7,1 1,8 5,1 6,8 9,0 18 10 46 25 WSW 1015,6 20 0 0,0
17.01.2018 17:00:00 7,8 0,5 6,2 6,8 9,0 17 9 48 26 W 1015,3 20 13 0,0
17.01.2018 16:00:00 8,1 -1,2 7,0 6,7 9,0 21 12 59 32 W 1014,8 20 60 0,0
17.01.2018 15:00:00 8,6 -1,0 7,1 6,7 9,0 18 10 58 32 W 1014,4 20 52 0,0
17.01.2018 14:00:00 8,6 0,3 9,1 6,7 9,0 22 12 54 29 WNW 1014,2 20 60 0,0
17.01.2018 13:00:00 7,7 0,9 6,3 6,7 9,1 22 12 63 34 WNW 1014,0 20 58 0,0
17.01.2018 12:00:00 6,6 0,5 5,6 6,7 9,1 22 12 53 29 W 1013,8 20 60 0,0
17.01.2018 11:00:00 5,6 0,6 3,6 6,8 9,1 19 10 47 26 W 1012,8 20 60 0,0
17.01.2018 10:00:00 4,5 0,6 2,5 6,8 9,1 19 10 52 28 W 1011,8 20 46 0,0
17.01.2018 09:00:00 4,1 0,6 2,2 6,9 9,1 24 13 49 27 W 1010,2 20 0 0,0
17.01.2018 08:00:00 3,9 0,9 1,8 6,9 9,1 17 9 51 28 W 1008,8 20 0 0,6
17.01.2018 07:00:00 3,7 1,1 2,3 7,0 9,1 16 8 62 34 NW 1007,0 14 0 0,6
17.01.2018 06:00:00 4,3 0,4 2,7 7,1 9,1 23 12 55 30 W 1006,3 20 0 0,0
17.01.2018 05:00:00 4,6 0,9 2,8 7,1 9,1 18 10 52 28 W 1005,5 20 0 0,0
17.01.2018 04:00:00 4,5 0,6 2,5 7,1 9,1 16 9 61 33 W 1004,6 20 0 0,4
17.01.2018 03:00:00 4,9 1,2 2,7 7,2 9,0 27 14 61 33 W 1004,1 15 0 0,2
17.01.2018 02:00:00 4,5 1,0 2,6 7,2 9,1 19 10 56 30 W 1002,5 20 0 0,0
17.01.2018 01:00:00 3,9 1,1 2,2 7,3 9,1 22 12 48 26 W 1002,6 20 0 0,0
17.01.2018 00:00:00 4,1 1,6 3,1 7,3 9,1 27 15 66 36 W 1002,5 20 0 1,4
16.01.2018 23:00:00 6,5 2,6 4,7 7,3 9,1 24 13 55 30 W 1002,1 20 0 0,2
16.01.2018 22:00:00 6,6 2,9 4,8 7,4 9,1 17 9 49 26 W 1001,7 20 0 0,0
16.01.2018 21:00:00 6,0 3,5 4,7 7,4 9,1 18 10 45 24 W 1002,4 20 0 0,2
16.01.2018 20:00:00 6,4 2,5 4,8 7,4 9,1 26 14 50 27 W 1002,2 19 0 0,0
16.01.2018 19:00:00 6,4 3,5 4,9 7,4 9,1 20 11 55 30 W 1002,6 14 0 0,6
16.01.2018 18:00:00 6,8 3,9 4,5 7,4 9,1 13 7 56 30 W 1003,1 20 0 0,6
16.01.2018 17:00:00 8,3 4,1 6,4 7,3 9,1 16 9 50 27 WNW 1003,1 20 3 0,2
16.01.2018 16:00:00 8,9 4,5 7,5 7,3 9,1 17 9 54 29 W 1002,3 20 3 0,0
16.01.2018 15:00:00 9,2 4,6 7,2 7,2 9,1 14 8 54 29 W 1002,8 20 19 0,0
16.01.2018 14:00:00 10,3 3,6 10,1 7,2 9,1 16 9 60 33 W 1002,7 20 15 0,0
16.01.2018 13:00:00 10,5 3,3 9,1 7,1 9,1 27 14 63 34 W 1003,2 20 50 0,0
16.01.2018 12:00:00 10,0 3,9 8,1 7,1 9,1 32 17 73 40 W 1003,8 20 31 0,0
16.01.2018 11:00:00 9,2 4,6 6,5 7,1 9,1 24 13 51 28 W 1003,2 20 33 0,0
16.01.2018 10:00:00 8,0 4,9 6,5 7,1 9,1 20 11 45 24 W 1003,0 20 2 0,2
16.01.2018 09:00:00 8,4 5,0 6,7 7,1 9,1 21 11 68 37 WNW 1002,6 17 0 0,4
16.01.2018 08:00:00 9,0 5,0 6,6 7,0 9,1 26 14 61 33 W 1001,2 20 0 0,2
16.01.2018 07:00:00 8,5 5,9 7,1 7,0 9,1 24 13 52 28 W 1001,1 18 0 0,2
16.01.2018 06:00:00 8,5 6,1 6,9 7,0 9,1 14 7 49 26 WSW 1001,1 20 0 0,2
16.01.2018 05:00:00 8,7 6,1 6,9 7,0 9,1 21 12 56 31 WSW 1001,4 18 0 0,2
16.01.2018 04:00:00 8,6 5,9 7,1 7,0 9,2 23 12 51 27 W 1001,8 13 0 0,2
16.01.2018 03:00:00 8,7 6,0 7,1 6,9 9,2 17 9 49 26 W 1001,8 20 0 0,2
16.01.2018 02:00:00 8,5 7,1 7,3 6,9 9,2 13 7 38 21 WSW 1001,6 19 0 0,8
16.01.2018 01:00:00 8,5 6,6 7,3 6,9 9,2 16 9 38 20 WSW 1002,7 11 0 0,6
16.01.2018 00:00:00 8,9 5,5 6,6 6,9 9,2 19 10 47 25 W 1003,0 20 0 0,0
15.01.2018 23:00:00 9,1 5,5 6,2 6,9 9,2 21 11 45 24 W 1002,8 20 0 0,0
15.01.2018 22:00:00 9,2 5,2 6,7 6,9 9,2 20 11 50 27 W 1002,3 20 0 0,0
15.01.2018 21:00:00 9,8 5,6 7,3 6,9 9,2 22 12 47 25 W 1002,2 20 0 0,0
15.01.2018 20:00:00 10,0 7,2 8,1 6,9 9,2 25 13 49 26 W 1001,7 20 0 0,0
15.01.2018 19:00:00 9,4 7,8 7,8 6,8 9,2 16 9 52 28 SW 1001,1 20 0 0,0
15.01.2018 18:00:00 8,9 7,5 7,5 6,8 9,2 25 13 72 39 SW 1001,2 20 0 0,2
15.01.2018 17:00:00 8,2 6,8 6,9 6,7 9,2 32 17 74 40 SW 1001,0 20 0 0,8
15.01.2018 16:00:00 7,7 6,2 6,4 6,7 9,2 37 20 85 46 SW 1002,2 5 0 1,5
15.01.2018 15:00:00 7,1 5,4 6,1 6,7 9,2 33 18 76 41 SW 1003,9 7 0 3,0

tt = Température de l'air
td = dewpoint
tt 5cm = Température de l'air 5cm
tt -20cm = Température de l'air -20cm
tt -100cm = Température de l'air -100cm
ff = Vitesse du vent
fx = gusts
dd = Direction du vent
ppp = reduced air pressure
vv = visibility
sd = Ensoleillement
rr = Quantités de précipitations

stations d'obs. à proximité